Location: ???? ???? ?????
(31.2680°N, 31.7283°E)
Time: 09:54:08
(UTC+00:00)

Cosmos 1833 Rocket - Pass Details

Date: 13 July 2020
Orbit: 832 x 840 km, 71.0° (Epoch: 07 August)

Event Time Altitude Azimuth Distance (km) Brightness Sun altitude
Exits shadow 23:03:21 32° 60° (ENE) 1,389 4.1 -34.9°
Drops below altitude 10° 23:06:42 10° 35° (NE) 2,443 5.8 -34.7°
Sets 23:09:14 0° 29° (NNE) 3,381 6.9 -34.5°
